| time (UTC) | temp F | wind direction | speed MPH | gust MPH | rain 1hr in | rain 24hr in | rain mn in | humidity % | barometer mb |
| 20260506003054 | 58 | 214 | 6.0 | 12.0 | 0.00 | 0.00 | 0.00 | 78 | 1008.1 |
| 20260506001556 | 58 | 207 | 5.0 | 11.0 | 0.00 | 0.00 | 0.00 | 78 | 1007.6 |
| 20260506000053 | 58 | 172 | 5.0 | 9.0 | 0.00 | 0.00 | 0.00 | 78 | 1008.0 |
| 20260505234550 | 58 | 172 | 4.0 | 15.0 | 0.00 | 0.00 | 0.00 | 78 | 1008.2 |
| 20260505233057 | 55 | 189 | 11.0 | 24.0 | 0.00 | 0.00 | 0.00 | 83 | 1008.2 |
| 20260505231547 | 54 | 220 | 10.0 | 24.0 | 0.00 | 0.00 | 0.00 | 83 | 1006.0 |
| 20260505230050 | 54 | 187 | 13.0 | 27.0 | 0.00 | 0.00 | 0.00 | 84 | 1005.7 |
| 20260505224548 | 54 | 162 | 12.0 | 21.0 | 0.00 | 0.00 | 0.00 | 83 | 1005.5 |
| 20260505223049 | 55 | 182 | 14.0 | 26.0 | 0.00 | 0.00 | 0.00 | 83 | 1005.2 |
| 20260505221544 | 55 | 186 | 11.0 | 26.0 | 0.00 | 0.00 | 0.00 | 82 | 1005.1 |
| 20260505220045 | 55 | 200 | 13.0 | 27.0 | 0.00 | 0.00 | 0.00 | 82 | 1005.1 |
| 20260505214543 | 55 | 207 | 12.0 | 27.0 | 0.00 | 0.00 | 0.00 | 82 | 1004.9 |
| 20260505213046 | 55 | 185 | 13.0 | 25.0 | 0.00 | 0.00 | 0.00 | 82 | 1004.9 |
| 20260505211544 | 56 | 172 | 13.0 | 27.0 | 0.00 | 0.00 | 0.00 | 81 | 1005.0 |
| 20260505210039 | 57 | 195 | 14.0 | 32.0 | 0.00 | 0.00 | 0.00 | 80 | 1005.2 |
| 20260505204538 | 56 | 214 | 13.0 | 22.0 | 0.00 | 0.00 | 0.00 | 81 | 1005.1 |
| 20260505203044 | 56 | 180 | 15.0 | 29.0 | 0.00 | 0.00 | 0.00 | 81 | 1005.2 |
| 20260505201536 | 56 | 188 | 14.0 | 25.0 | 0.00 | 0.00 | 0.00 | 82 | 1005.4 |
| 20260505200036 | 56 | 175 | 12.0 | 25.0 | 0.00 | 0.00 | 0.00 | 82 | 1005.3 |
| 20260505194534 | 56 | 212 | 12.0 | 27.0 | 0.00 | 0.00 | 0.00 | 82 | 1005.7 |
| 20260505193042 | 56 | 196 | 14.0 | 26.0 | 0.00 | 0.00 | 0.00 | 83 | 1006.0 |
| 20260505191529 | 55 | 195 | 15.0 | 24.0 | 0.00 | 0.00 | 0.00 | 83 | 1006.3 |
| 20260505190038 | 56 | 176 | 14.0 | 23.0 | 0.00 | 0.00 | 0.00 | 82 | 1006.5 |
| 20260505184530 | 56 | 165 | 13.0 | 21.0 | 0.00 | 0.00 | 0.00 | 83 | 1006.5 |
| 20260505183027 | 56 | 182 | 14.0 | 25.0 | 0.00 | 0.00 | 0.00 | 83 | 1006.7 |
| 20260505181523 | 55 | 188 | 11.0 | 22.0 | 0.00 | 0.00 | 0.00 | 84 | 1006.9 |
| 20260505180028 | 55 | 200 | 13.0 | 20.0 | 0.00 | 0.00 | 0.00 | 83 | 1007.1 |
| 20260505174518 | 55 | 210 | 13.0 | 21.0 | 0.00 | 0.00 | 0.00 | 83 | 1007.5 |
| 20260505173016 | 54 | 195 | 13.0 | 19.0 | 0.00 | 0.00 | 0.00 | 85 | 1007.6 |
| 20260505171515 | 54 | 179 | 11.0 | 19.0 | 0.00 | 0.00 | 0.00 | 84 | 1007.5 |
| 20260505170016 | 58 | 185 | 10.0 | 14.0 | 0.00 | 0.00 | 0.00 | 79 | 1007.7 |
| 20260505164510 | 55 | 190 | 9.0 | 14.0 | 0.00 | 0.00 | 0.00 | 82 | 1008.0 |
| 20260505163009 | 55 | 184 | 12.0 | 19.0 | 0.00 | 0.00 | 0.00 | 84 | 1008.2 |
| 20260505161507 | 54 | 202 | 10.0 | 18.0 | 0.00 | 0.00 | 0.00 | 83 | 1008.6 |
| 20260505153004 | 57 | 181 | 4.0 | 9.0 | 0.00 | 0.00 | 0.00 | 82 | 1009.2 |
| 20260505151502 | 53 | 198 | 6.0 | 16.0 | 0.00 | 0.00 | 0.00 | 86 | 1009.6 |
| 20260505124548 | 54 | 191 | 10.0 | 15.0 | 0.00 | 0.00 | 0.00 | 83 | 1009.0 |
| 20260505123056 | 54 | 179 | 9.0 | 14.0 | 0.00 | 0.00 | 0.00 | 83 | 1008.8 |
| 20260505121545 | 54 | 203 | 6.0 | 14.0 | 0.00 | 0.00 | 0.00 | 83 | 1008.9 |
| 20260505120054 | 53 | 204 | 8.0 | 15.0 | 0.00 | 0.00 | 0.00 | 83 | 1008.9 |
| 20260505114548 | 53 | 177 | 10.0 | 21.0 | 0.00 | 0.00 | 0.00 | 83 | 1009.1 |
| 20260505113050 | 53 | 172 | 9.0 | 18.0 | 0.00 | 0.00 | 0.00 | 84 | 1009.1 |
| 20260505111544 | 52 | 167 | 7.0 | 11.0 | 0.00 | 0.00 | 0.00 | 84 | 1009.1 |
| 20260505101538 | 50 | 195 | 3.0 | 11.0 | 0.00 | 0.00 | 0.00 | 86 | 1008.9 |
| 20260505100038 | 50 | 188 | 5.0 | 10.0 | 0.00 | 0.00 | 0.00 | 86 | 1008.8 |
| 20260505094534 | 49 | 210 | 3.0 | 7.0 | 0.00 | 0.00 | 0.00 | 86 | 1008.9 |
| 20260505093034 | 49 | 224 | 3.0 | 6.0 | 0.00 | 0.00 | 0.00 | 87 | 1009.0 |
| 20260505091533 | 49 | 195 | 2.0 | 5.0 | 0.00 | 0.00 | 0.00 | 87 | 1008.9 |
| 20260505090032 | 49 | 198 | 1.0 | 5.0 | 0.00 | 0.00 | 0.00 | 86 | 1009.0 |
| 20260505084544 | 49 | 185 | 2.0 | 5.0 | 0.00 | 0.00 | 0.00 | 85 | 1009.1 |
| 20260505083046 | 50 | 169 | 2.0 | 5.0 | 0.00 | 0.00 | 0.00 | 85 | 1009.1 |
| 20260505081537 | 49 | 191 | 3.0 | 5.0 | 0.00 | 0.00 | 0.00 | 85 | 1009.0 |
| 20260505080043 | 48 | 195 | 1.0 | 4.0 | 0.00 | 0.00 | 0.00 | 86 | 1009.0 |
| 20260505074525 | 49 | 189 | 1.0 | 5.0 | 0.00 | 0.00 | 0.00 | 85 | 1009.0 |
| 20260505073035 | 50 | 169 | 2.0 | 5.0 | 0.00 | 0.00 | 0.00 | 84 | 1009.0 |
| 20260505071526 | 50 | 193 | 1.0 | 3.0 | 0.00 | 0.00 | 0.00 | 82 | 1009.0 |
| 20260505070020 | 51 | 198 | 2.0 | 4.0 | 0.00 | 0.00 | 0.00 | 82 | 1008.9 |
| 20260505064518 | 50 | 184 | 1.0 | 4.0 | 0.00 | 0.00 | 0.00 | 82 | 1008.9 |
| 20260505063016 | 51 | 197 | 2.0 | 5.0 | 0.00 | 0.00 | 0.00 | 80 | 1008.9 |
| 20260505061524 | 52 | 159 | 2.0 | 4.0 | 0.00 | 0.00 | 0.00 | 79 | 1009.0 |
| 20260505060015 | 52 | 221 | 2.0 | 6.0 | 0.00 | 0.00 | 0.00 | 78 | 1008.9 |
| 20260505054510 | 53 | 169 | 3.0 | 7.0 | 0.00 | 0.00 | 0.00 | 77 | 1008.9 |
| 20260505053008 | 53 | 196 | 3.0 | 8.0 | 0.00 | 0.00 | 0.00 | 77 | 1008.8 |
| 20260505051506 | 53 | 195 | 3.0 | 7.0 | 0.00 | 0.00 | 0.00 | 77 | 1008.8 |
| 20260505041601 | 56 | 212 | 5.0 | 11.0 | 0.00 | 0.00 | 0.00 | 72 | 1008.3 |
| 20260505040050 | 57 | 163 | 5.0 | 14.0 | 0.00 | 0.00 | 0.00 | 69 | 1008.2 |
| 20260505034548 | 57 | 212 | 4.0 | 8.0 | 0.00 | 0.00 | 0.00 | 69 | 1008.2 |
| 20260505033049 | 57 | 233 | 6.0 | 14.0 | 0.00 | 0.00 | 0.00 | 68 | 1008.0 |
| 20260505031548 | 58 | 233 | 7.0 | 12.0 | 0.00 | 0.00 | 0.00 | 67 | 1008.0 |
| 20260505030108 | 58 | 150 | 6.0 | 12.0 | 0.00 | 0.00 | 0.00 | 68 | 1007.9 |
| 20260505024550 | 57 | 195 | 5.0 | 11.0 | 0.00 | 0.00 | 0.00 | 70 | 1007.9 |
| 20260505023046 | 56 | 187 | 6.0 | 16.0 | 0.00 | 0.00 | 0.00 | 73 | 1007.9 |
| 20260505021546 | 54 | 219 | 4.0 | 12.0 | 0.00 | 0.00 | 0.00 | 76 | 1007.9 |
| 20260505020047 | 54 | 213 | 3.0 | 11.0 | 0.00 | 0.00 | 0.00 | 77 | 1007.7 |
| 20260505014603 | 53 | 194 | 3.0 | 8.0 | 0.00 | 0.00 | 0.00 | 79 | 1007.6 |
| 20260505013050 | 52 | 210 | 2.0 | 7.0 | 0.00 | 0.00 | 0.00 | 81 | 1007.6 |
| 20260505011545 | 51 | 194 | 4.0 | 11.0 | 0.00 | 0.00 | 0.00 | 82 | 1007.3 |
| 20260505010052 | 51 | 188 | 2.0 | 10.0 | 0.00 | 0.00 | 0.00 | 83 | 1007.2 |
| 20260505004548 | 50 | 143 | 4.0 | 9.0 | 0.00 | 0.00 | 0.00 | 85 | 1007.1 |